Bookmark and Share
Track history (hours):
 

Favola

Last reported at 2014-Apr-23 11:33 UTC. Time now 2014-Apr-25 06:11 UTC.
Position N 38°02' W 009°44'.

Length 180 m; draft 9.4 m.

Type: Ship (hazmat cat C). MMSI: 247069800.

NotesDate/timePositionNaut miles runAvg speedWind from/ knotsBaromVisibWave heightAir tempDewpointWater temp
2014-Apr-23 11:33N 38°02' W 009°44'1111.4
2014-Apr-23 10:33N 37°51' W 009°42'1110.8
2014-Apr-23 09:33N 37°41' W 009°39'1010.4
2014-Apr-23 08:33N 37°31' W 009°36'2610.6
2014-Apr-23 06:07N 37°06' W 009°28'810.7
2014-Apr-23 05:23N 36°58' W 009°26'2910.1
2014-Apr-23 02:33N 36°38' W 008°60'1110.9
2014-Apr-23 01:31N 36°35' W 008°47'1111.2
2014-Apr-23 00:33N 36°31' W 008°34'14610.4
2014-Apr-22 10:29N 35°58' W 005°38'7 8.1
2014-Apr-22 09:33N 35°59' W 005°29'8 8.1
2014-Apr-22 08:33N 36°01' W 005°19'9 9.2
2014-Apr-22 07:33N 36°05' W 005°08'  
2014-Apr-19 14:11N 37°40' E 008°07'710.4
2014-Apr-19 13:33N 37°40' E 008°15'1010.4
2014-Apr-19 12:33N 37°41' E 008°28'2110.5
2014-Apr-19 10:32N 37°42' E 008°55'1111.2
2014-Apr-19 09:33N 37°42' E 009°09'1111.1
2014-Apr-19 08:33N 37°43' E 009°23'1111.1
2014-Apr-19 07:33N 37°43' E 009°37'1111.2
2014-Apr-19 06:33N 37°44' E 009°51'1110.8
2014-Apr-19 05:33N 37°43' E 010°04'17610.3
2014-Apr-18 12:32N 37°05' E 013°41'1010.3
2014-Apr-18 11:33N 37°01' E 013°52'1010.0
2014-Apr-18 10:33N 36°57' E 014°03'1010.1
2014-Apr-18 09:33N 36°52' E 014°14'1010.3
2014-Apr-18 08:33N 36°45' E 014°24'10 9.6
2014-Apr-18 07:33N 36°40' E 014°34'48610.8
2014-Apr-16 10:33N 35°34' E 024°31'2811.5
2014-Apr-16 08:09N 35°32' E 025°04'711.5
2014-Apr-16 07:33N 35°32' E 025°13'1111.3
2014-Apr-16 06:33N 35°31' E 025°27'1111.2
2014-Apr-16 05:32N 35°29' E 025°40'1411.2
2014-Apr-16 04:20N 35°27' E 025°57'1011.3
2014-Apr-16 03:29N 35°25' E 026°08'1111.4
2014-Apr-16 02:32N 35°24' E 026°21'3511.6
2014-Apr-15 23:33N 35°16' E 027°03'26511.0
2014-Apr-14 23:32N 34°35' E 032°22'1111.5
2014-Apr-14 22:33N 34°33' E 032°36'1211.8
2014-Apr-14 21:34N 34°31' E 032°50'1211.8
2014-Apr-14 20:34N 34°29' E 033°04'1110.8
2014-Apr-14 19:34N 34°27' E 033°17'1 1.1
2014-Apr-14 18:34N 34°27' E 033°18'1 0.6
2014-Apr-14 17:33N 34°28' E 033°19'2 1.7
2014-Apr-14 16:34N 34°28' E 033°21'1 0.7
2014-Apr-14 15:34N 34°28' E 033°21'1 0.7
2014-Apr-14 14:34N 34°28' E 033°20'1 0.5
2014-Apr-14 13:34N 34°28' E 033°19'0 0.2
2014-Apr-14 11:34N 34°28' E 033°19'0 0.1
2014-Apr-14 10:32N 34°28' E 033°18'0 0.1
2014-Apr-14 09:33N 34°28' E 033°18'0 0.1
2014-Apr-14 08:33N 34°27' E 033°18'0 0.1
2014-Apr-14 07:33N 34°27' E 033°18'0 0.1
2014-Apr-14 06:33N 34°27' E 033°18'0 0.1
2014-Apr-14 05:33N 34°27' E 033°18'2 0.3
2014-Apr-13 22:33N 34°27' E 033°21'5 5.3
2014-Apr-13 21:33N 34°31' E 033°26'6 5.2
2014-Apr-13 20:29N 34°34' E 033°31'1 0.8
2014-Apr-13 19:21N 34°34' E 033°32'4 5.0
2014-Apr-13 18:33N 34°32' E 033°28'5 5.3
2014-Apr-13 17:33N 34°30' E 033°22'2 1.7
2014-Apr-13 16:33N 34°28' E 033°21'2 2.1
2014-Apr-13 15:33N 34°29' E 033°19'1 0.9
2014-Apr-13 14:33N 34°29' E 033°20'1 0.9
2014-Apr-13 13:33N 34°29' E 033°21'8 8.0
2014-Apr-13 12:33N 34°33' E 033°29'  

Dump ship's entire track history

sailing weather and tide predictions

Favola — IBFH — position and weather